Showing default

COSMOS 2212, 22183

Orbit data source: Space-Track

COSMOS 2212, 22183 is a payload satellite owned by VKS (CIS) in LEO that was launched on Tue, 20 Oct 1992 UTC via a TSIKLON-3 launch vehicle from the Plesetsk Missile And Space Complex (PKMTR). Payload-class satellites include a variety of spacecraft equipped with specific instruments for various scientific and technological missions. These include communications satellites like Starlink; space stations such as the ISS; scientific satellites like the Hubble; Earth observation satellites from companies like Planet Labs, Umbra, and HawkEye 360; GPS; miniature CubeSats for education and research; and military/defense satellites.

Loading next visibility...
Identifier
22183, 1992-068B
Orbit
LEO
Country
Flag of CISCIS
Related business
Manufacturer
NPO PM
Mission
Defense Communications
Bus & Motor
STRELA-3, Unknown motor
Mass
225 kg wet, 225 kg dry
Launch date (UTC)
1992-10-20 (33 years ago)
Launch vehicle
TSIKLON-3
Launch site
Plesetsk Missile And Space Complex (PKMTR)
Object type
Payload
Rocket body
Debris
Shape & HBR
Cyl, 0.8 m
Radar Cross Section
1.257 m², Medium (>0.1 m² and < 1m²)

Expand to show TLE details & history
Last TLE update: 4 hours ago

TLE from 4 hours ago
0 COSMOS 2212
1 22183U 92068B   26036.32112146  .00000012  00000-0  94190-5 0  9999
2 22183  82.5856  52.8701 0003641 104.3852 255.7644 12.63146602534930
Epoch: 2026-02-05T07:42Z
TLE epoch observation values (Epoch: 2026-02-05T07:42:24.894Z)
Latitude
0.00001°
Longitude
161.79135°
Altitude
1,413.413 km
Speed
7.154 km/s
True Right ascension
03h 31m 28s
True Declination
0° 00' 00"
Sunlit
Object was in daylight at epoch
Visualization orbit readout
Latitude
Unknown
Longitude
Unknown
Altitude
Unknown
Speed
Unknown
Apparent Right ascension
Unknown
Apparent Declination
Unknown
Sunlit
N/A
Visualization observer readout
Local Sidereal Time
13:34:23
Azimuth
Unknown
Elevation
Unknown
Doppler factor
Unknown
Orbital elements
Apogee altitude
1,410.138 km
Perigee altitude
1,404.468 km
Semi-major axis
7,785.44 km
Eccentricity
0.00036
Inclination
82.5856°
RAAN
52.8701°
Arg. of periapsis
104.3852°
True anomaly
255.72396°
Mean anomaly
255.7644°
Eccentric anomaly
255.74418°
Mean motion
3.1595 °/min
Orbital period
113.94 mins
BSTAR
0.000009419
Loading maneuver chart data...
Computing Atmospheric mass density...
Loading historical data...
Loading historical data...
Loading historical data...
Loading historical data...
Loading historical data...
Loading historical data...
Loading historical data...

Documentation

Showing up to 5 results
|